Chicopee, MA

5:34 AM EST on December 07, 2016 (GMT -0500)
Westover Air Reserve Base / Metropolitan Airport

Weather History for KCEF - October, 2012

Change the Weather History Date:

Friday, October 19, 2012

  Actual Average Record
Temperature  
Mean Temperature 60 °F -  
Max Temperature 66 °F 57 °F 77 °F (2016)
Min Temperature 53 °F 36 °F 16 °F (2015)
Degree Days  
Heating Degree Days 6    
Growing Degree Days 10 (Base 50)    
Moisture  
Dew Point 59 °F    
Average Humidity 95    
Maximum Humidity 100    
Minimum Humidity 83    
Precipitation  
Precipitation 0.56 in - - ()
Sea Level Pressure  
Sea Level Pressure 29.86 in    
Wind  
Wind Speed 4 mph (ESE)    
Max Wind Speed 9 mph    
Max Gust Speed 18 mph    
Visibility 7 miles    
Events Rain    
Averages and records for this station are not official NWS values.
T = Trace of Precipitation, MM = Missing Value Source: NWS Daily Summary

Daily Weather History Graph

Daily Weather History Graph

Search for Another Location

Airport or City:

Trip Planner

Search our weather history database for the weather conditions in past years. The results will help you decide how hot, cold, wet, or windy it might be!

Date:

Astronomy

Oct. 19, 2012 Rise Set
Actual Time 7:07 AM EDT 6:01 PM EDT
Civil Twilight 6:39 AM EDT 6:29 PM EDT
Nautical Twilight 6:06 AM EDT 7:02 PM EDT
Astronomical Twilight 5:34 AM EDT 7:34 PM EDT
Moon 11:52 AM EDT (10/19) 9:32 PM EDT (10/19)
Length of Visible Light 11h 50m
Length of Day
10h 53m
Waxing Crescent, 23% of the Moon is Illuminated
Oct 19
Waxing Crescent
Oct 21
First Quarter
Oct 29
Full
Nov 6
Last Quarter
Nov 13
New

Hourly Weather History & Observations

Time (EDT) Temp. Dew Point Humidity Pressure Visibility Wind Dir Wind Speed Gust Speed Precip Events Conditions
12:23 AM 53.6 °F 51.8 °F 94% 30.04 in 10.0 mi NE 4.6 mph - N/A   Overcast
12:28 AM 53.6 °F 51.8 °F 94% 30.04 in 10.0 mi Calm Calm - N/A   Overcast
12:55 AM 55.0 °F 52.0 °F 89% 30.04 in 10.0 mi NE 3.5 mph - N/A   Overcast
1:55 AM 55.6 °F 52.7 °F 90% 30.03 in 10.0 mi Variable 4.6 mph - N/A   Overcast
2:27 AM 55.4 °F 53.6 °F 94% 30.01 in 10.0 mi ENE 4.6 mph - N/A   Light Drizzle
2:55 AM 56.1 °F 53.2 °F 90% 30.01 in 10.0 mi Calm Calm - 0.00 in   Light Drizzle
2:57 AM 55.4 °F 53.6 °F 94% 30.01 in 10.0 mi ENE 3.5 mph - N/A   Overcast
3:32 AM 55.4 °F 53.6 °F 94% 29.99 in 10.0 mi NNE 3.5 mph - N/A   Overcast
3:55 AM 55.6 °F 53.2 °F 92% 29.98 in 10.0 mi Calm Calm - 0.00 in   Mostly Cloudy
4:22 AM 57.2 °F 53.6 °F 88% 29.98 in 10.0 mi East 4.6 mph - N/A   Light Drizzle
4:35 AM 57.2 °F 53.6 °F 88% 29.98 in 10.0 mi Calm Calm - N/A Rain Light Rain
4:55 AM 56.5 °F 54.3 °F 92% 29.97 in 10.0 mi East 3.5 mph - 0.00 in Rain Light Rain
5:00 AM 57.2 °F 53.6 °F 88% 29.98 in 10.0 mi East 4.6 mph - N/A   Overcast
5:02 AM 57.2 °F 53.6 °F 88% 29.98 in 10.0 mi East 4.6 mph - N/A Rain Light Rain
5:44 AM 55.4 °F 55.4 °F 100% 29.97 in 7.0 mi Variable 6.9 mph - N/A Rain Light Rain
5:49 AM 55.4 °F 55.4 °F 100% 29.97 in 8.0 mi East 8.1 mph - N/A Rain Light Rain
5:55 AM 56.1 °F 55.0 °F 96% 29.97 in 10.0 mi East 6.9 mph - 0.04 in Rain Light Rain
5:58 AM 55.4 °F 55.4 °F 100% 29.97 in 10.0 mi Variable 5.8 mph - N/A Rain Light Rain
6:02 AM 55.4 °F 55.4 °F 100% 29.96 in 10.0 mi East 6.9 mph - N/A   Mostly Cloudy
6:03 AM 55.4 °F 55.4 °F 100% 29.96 in 10.0 mi East 6.9 mph - N/A   Mostly Cloudy
6:51 AM 57.2 °F 55.4 °F 94% 29.97 in 10.0 mi ESE 5.8 mph - N/A   Light Drizzle
6:55 AM 56.3 °F 55.4 °F 97% 29.97 in 10.0 mi Variable 3.5 mph - 0.00 in Rain Light Rain
7:19 AM 57.2 °F 55.4 °F 94% 29.96 in 10.0 mi Variable 3.5 mph - N/A   Overcast
7:32 AM 57.2 °F 55.4 °F 94% 29.96 in 9.0 mi East 4.6 mph - N/A   Overcast
7:37 AM 57.2 °F 55.4 °F 94% 29.97 in 10.0 mi Variable 4.6 mph - N/A   Light Drizzle
7:52 AM 57.2 °F 55.4 °F 94% 29.97 in 10.0 mi ESE 5.8 mph - N/A   Overcast
7:55 AM 56.3 °F 55.8 °F 98% 29.97 in 10.0 mi Variable 3.5 mph - 0.01 in   Overcast
7:56 AM 57.2 °F 55.4 °F 94% 29.97 in 8.0 mi ESE 4.6 mph - N/A Rain Light Rain
8:10 AM 57.2 °F 55.4 °F 94% 29.97 in 3.0 mi East 4.6 mph - N/A Rain Light Rain
8:11 AM 57.2 °F 55.4 °F 94% 29.97 in 2.5 mi East 4.6 mph - N/A Rain Light Rain
8:16 AM 57.2 °F 55.4 °F 94% 29.98 in 2.0 mi ESE 3.5 mph - N/A Rain Rain
8:21 AM 57.2 °F 55.4 °F 94% 29.97 in 2.0 mi Variable 3.5 mph - N/A Rain Rain
8:55 AM 57.2 °F 55.4 °F 94% 29.96 in 3.0 mi Variable 6.9 mph - N/A Rain Light Rain
9:55 AM 57.2 °F 57.2 °F 100% 29.91 in 6.0 mi Variable 5.8 mph - N/A   Overcast
10:55 AM 60.8 °F 59.0 °F 94% 29.92 in 6.0 mi East 3.5 mph - N/A Rain Light Rain
11:55 AM 60.8 °F 60.8 °F 100% 29.88 in 6.0 mi Variable 3.5 mph - N/A Rain Light Rain
12:55 PM 64.4 °F 60.8 °F 88% 29.83 in 7.0 mi Variable 6.9 mph - N/A Rain Light Rain
1:55 PM 66.2 °F 60.8 °F 83% 29.80 in 8.0 mi SE 8.1 mph 18.4 mph N/A Rain Light Rain
2:14 PM 66.2 °F 60.8 °F 83% 29.80 in 2.0 mi Variable 4.6 mph - N/A Rain Rain
2:27 PM 64.4 °F 62.6 °F 94% 29.80 in 1.8 mi SE 5.8 mph - N/A Rain Heavy Rain
2:40 PM 64.4 °F 64.4 °F 100% 29.80 in 2.0 mi Variable 4.6 mph - N/A Rain Light Rain
2:55 PM 64.0 °F 63.5 °F 98% 29.81 in 2.0 mi SSE 8.1 mph - 0.29 in Rain Light Rain
3:40 PM 64.4 °F 64.4 °F 100% 29.78 in 2.5 mi SE 6.9 mph - N/A Rain Light Rain
3:49 PM 66.2 °F 64.4 °F 94% 29.78 in 3.0 mi Variable 4.6 mph - N/A Rain Light Rain
3:55 PM 65.3 °F 64.8 °F 98% 29.77 in 3.0 mi SE 4.6 mph - 0.05 in Rain Light Rain
4:26 PM 66.2 °F 64.4 °F 94% 29.76 in 1.5 mi SSE 5.8 mph - N/A Rain Rain
4:34 PM 66.2 °F 64.4 °F 94% 29.75 in 2.0 mi Variable 3.5 mph - N/A Rain Light Rain
4:42 PM 66.2 °F 64.4 °F 94% 29.74 in 2.5 mi SE 4.6 mph - N/A Rain Light Rain
4:45 PM 66.2 °F 64.4 °F 94% 29.74 in 3.0 mi SE 4.6 mph - N/A Rain Light Rain
4:55 PM 65.5 °F 64.9 °F 98% 29.73 in 3.0 mi Variable 6.9 mph - 0.08 in Rain Light Rain
5:18 PM 66.2 °F 64.4 °F 94% 29.72 in 7.0 mi Variable 6.9 mph - N/A Rain Light Rain
5:36 PM 66.2 °F 64.4 °F 94% 29.73 in 1.5 mi SSE 9.2 mph - N/A Rain Light Rain
5:41 PM 66.2 °F 64.4 °F 94% 29.72 in 2.0 mi SSE 9.2 mph - N/A Rain Rain
5:46 PM 66.2 °F 64.4 °F 94% 29.72 in 3.0 mi Variable 6.9 mph - N/A Rain Light Rain
5:55 PM 65.7 °F 65.1 °F 98% 29.72 in 5.0 mi South 8.1 mph - 0.08 in Rain Light Rain
6:52 PM 66.2 °F 64.4 °F 94% 29.71 in 10.0 mi Variable 4.6 mph - N/A   Overcast
6:55 PM 65.5 °F 64.9 °F 98% 29.71 in 10.0 mi Calm Calm - 0.01 in   Overcast
7:55 PM 65.5 °F 64.8 °F 98% 29.70 in 10.0 mi Variable 3.5 mph - N/A   Overcast
8:00 PM 66.2 °F 64.4 °F 94% 29.70 in 10.0 mi Calm Calm - N/A   Overcast
8:10 PM 64.4 °F 64.4 °F 100% 29.70 in 10.0 mi Calm Calm - N/A   Overcast
8:21 PM 64.4 °F 64.4 °F 100% 29.70 in 5.0 mi SE 2.3 mph - N/A   Light Drizzle
8:55 PM 64.8 °F 64.4 °F 99% 29.71 in 4.0 mi Calm Calm - N/A   Light Drizzle
9:06 PM 64.4 °F 64.4 °F 100% 29.71 in 4.0 mi South 4.6 mph - N/A   Light Drizzle
9:55 PM 65.8 °F 65.7 °F 99% 29.72 in 4.0 mi South 9.2 mph - N/A   Light Drizzle
10:11 PM 66.2 °F 66.2 °F 100% 29.72 in 5.0 mi South 9.2 mph - N/A   Overcast
10:55 PM 65.8 °F 65.5 °F 99% 29.71 in 10.0 mi SSE 6.9 mph - N/A   Overcast
11:14 PM 66.2 °F 64.4 °F 94% 29.71 in 10.0 mi SSE 6.9 mph - N/A   Overcast
11:20 PM 66.2 °F 64.4 °F 94% 29.71 in 10.0 mi SSE 6.9 mph - N/A   Mostly Cloudy
11:27 PM 66.2 °F 64.4 °F 94% 29.71 in 10.0 mi SSE 5.8 mph - N/A   Scattered Clouds
11:55 PM 64.9 °F 64.8 °F 99% 29.71 in 10.0 mi SSE 6.9 mph - N/A   Mostly Cloudy
11:58 PM 64.4 °F 64.4 °F 100% 29.71 in 10.0 mi SSE 5.8 mph - N/A   Mostly Cloudy